0 HST 1 20580U 90037B 25249.22166405 .00009038 00000-0 33109-3 0 9991 2 20580 28.4674 215.3064 0002083 244.8290 115.2089 15.26208685745073 0 ISS (ZARYA) 1 25544U 98067A 25249.16482935 .00011253 00000-0 20385-3 0 9993 2 25544 51.6328 265.7109 0004205 306.5919 53.4683 15.50137885527726 0 CXO 1 25867U 99040B 25251.41854089 .00001104 00000-0 00000-0 0 9990 2 25867 51.1350 126.2465 8296128 310.2379 0.8476 0.37803582 16257